Directory Listing
Index of /dewikiversity/20260201/

Index of /dewikiversity/20260201/


../
dewikiversity-20260201-all-titles-in-ns0.gz        02-Feb-2026 03:09    450K
dewikiversity-20260201-all-titles.gz               02-Feb-2026 03:09      1M
dewikiversity-20260201-babel.sql.gz                02-Feb-2026 00:44    3407
dewikiversity-20260201-category.sql.gz             02-Feb-2026 00:44    231K
dewikiversity-20260201-categorylinks.sql.gz        02-Feb-2026 00:43      3M
dewikiversity-20260201-change_tag.sql.gz           02-Feb-2026 00:44      2M
dewikiversity-20260201-change_tag_def.sql.gz       02-Feb-2026 00:44    1442
dewikiversity-20260201-externallinks.sql.gz        02-Feb-2026 00:43      2M
dewikiversity-20260201-geo_tags.sql.gz             02-Feb-2026 00:44     884
dewikiversity-20260201-image.sql.gz                02-Feb-2026 00:43      3M
dewikiversity-20260201-imagelinks.sql.gz           02-Feb-2026 00:43    653K
dewikiversity-20260201-iwlinks.sql.gz              02-Feb-2026 00:44    850K
dewikiversity-20260201-langlinks.sql.gz            02-Feb-2026 00:44    115K
dewikiversity-20260201-linktarget.sql.gz           02-Feb-2026 00:43      4M
dewikiversity-20260201-md5sums.json                02-Feb-2026 03:47    3182
dewikiversity-20260201-md5sums.txt                 02-Feb-2026 03:47    2972
dewikiversity-20260201-page.sql.gz                 02-Feb-2026 00:44      5M
dewikiversity-20260201-page_props.sql.gz           02-Feb-2026 00:44    699K
dewikiversity-20260201-page_restrictions.sql.gz    02-Feb-2026 00:44    5864
dewikiversity-20260201-pagelinks.sql.gz            02-Feb-2026 00:43      3M
dewikiversity-20260201-pages-articles-multistre..> 02-Feb-2026 00:47      1M
dewikiversity-20260201-pages-articles-multistre..> 02-Feb-2026 00:47    136K
dewikiversity-20260201-pages-articles-multistre..> 02-Feb-2026 00:47     48M
dewikiversity-20260201-pages-articles-multistre..> 02-Feb-2026 00:47     10M
dewikiversity-20260201-pages-articles.xml.bz2      02-Feb-2026 00:46     44M
dewikiversity-20260201-pages-articles.xml.bz2.i..> 02-Feb-2026 00:46     44M
dewikiversity-20260201-pages-logging.xml.gz        02-Feb-2026 03:09      6M
dewikiversity-20260201-pages-meta-current.xml.bz2  02-Feb-2026 00:49     62M
dewikiversity-20260201-pages-meta-history.xml.7z   02-Feb-2026 03:47    193M
dewikiversity-20260201-pages-meta-history.xml.bz2  02-Feb-2026 03:42      1G
dewikiversity-20260201-protected_titles.sql.gz     02-Feb-2026 00:44    1035
dewikiversity-20260201-redirect.sql.gz             02-Feb-2026 00:44     31K
dewikiversity-20260201-runsettings.txt             01-Feb-2026 22:27      28
dewikiversity-20260201-sha1sums.json               02-Feb-2026 03:47    3487
dewikiversity-20260201-sha1sums.txt                02-Feb-2026 03:47    3276
dewikiversity-20260201-site_stats.sql.gz           02-Feb-2026 00:43     842
dewikiversity-20260201-siteinfo-namespaces.json.gz 02-Feb-2026 03:08    6630
dewikiversity-20260201-siteinfo2-namespacesv2.j..> 02-Feb-2026 03:08    6892
dewikiversity-20260201-sites.sql.gz                02-Feb-2026 00:44     23K
dewikiversity-20260201-stub-articles.xml.gz        01-Feb-2026 22:45     10M
dewikiversity-20260201-stub-meta-current.xml.gz    01-Feb-2026 22:45     12M
dewikiversity-20260201-stub-meta-history.xml.gz    01-Feb-2026 22:45     67M
dewikiversity-20260201-templatelinks.sql.gz        02-Feb-2026 00:43      6M
dewikiversity-20260201-user_former_groups.sql.gz   02-Feb-2026 00:44    1089
dewikiversity-20260201-user_groups.sql.gz          02-Feb-2026 00:44    1033
dewikiversity-20260201-wbc_entity_usage.sql.gz     02-Feb-2026 00:44    246K
dumpruninfo.json                                   02-Feb-2026 03:47    2562
dumpruninfo.txt                                    02-Feb-2026 03:47    2202
dumpspecialfiles.json                              02-Feb-2026 03:47     134
dumpstatus.json                                    02-Feb-2026 03:47     12K
md5sums-dewikiversity-20260201-all-titles-in-ns..> 02-Feb-2026 03:09      78
md5sums-dewikiversity-20260201-all-titles.gz.txt   02-Feb-2026 03:09      71
md5sums-dewikiversity-20260201-babel.sql.gz.txt    02-Feb-2026 00:44      70
md5sums-dewikiversity-20260201-category.sql.gz.txt 02-Feb-2026 00:44      73
md5sums-dewikiversity-20260201-categorylinks.sq..> 02-Feb-2026 00:43      78
md5sums-dewikiversity-20260201-change_tag.sql.g..> 02-Feb-2026 00:44      75
md5sums-dewikiversity-20260201-change_tag_def.s..> 02-Feb-2026 00:44      79
md5sums-dewikiversity-20260201-externallinks.sq..> 02-Feb-2026 00:44      78
md5sums-dewikiversity-20260201-geo_tags.sql.gz.txt 02-Feb-2026 00:44      73
md5sums-dewikiversity-20260201-image.sql.gz.txt    02-Feb-2026 00:43      70
md5sums-dewikiversity-20260201-imagelinks.sql.g..> 02-Feb-2026 00:43      75
md5sums-dewikiversity-20260201-iwlinks.sql.gz.txt  02-Feb-2026 00:44      72
md5sums-dewikiversity-20260201-langlinks.sql.gz..> 02-Feb-2026 00:44      74
md5sums-dewikiversity-20260201-linktarget.sql.g..> 02-Feb-2026 00:43      75
md5sums-dewikiversity-20260201-page.sql.gz.txt     02-Feb-2026 00:44      69
md5sums-dewikiversity-20260201-page_props.sql.g..> 02-Feb-2026 00:44      75
md5sums-dewikiversity-20260201-page_restriction..> 02-Feb-2026 00:44      82
md5sums-dewikiversity-20260201-pagelinks.sql.gz..> 02-Feb-2026 00:43      74
md5sums-dewikiversity-20260201-pages-articles-m..> 02-Feb-2026 00:47      98
md5sums-dewikiversity-20260201-pages-articles-m..> 02-Feb-2026 00:47      92
md5sums-dewikiversity-20260201-pages-articles.x..> 02-Feb-2026 00:46      80
md5sums-dewikiversity-20260201-pages-logging.xm..> 02-Feb-2026 03:09      78
md5sums-dewikiversity-20260201-pages-meta-curre..> 02-Feb-2026 00:49      84
md5sums-dewikiversity-20260201-pages-meta-histo..> 02-Feb-2026 03:47      83
md5sums-dewikiversity-20260201-pages-meta-histo..> 02-Feb-2026 03:42      84
md5sums-dewikiversity-20260201-protected_titles..> 02-Feb-2026 00:44      81
md5sums-dewikiversity-20260201-redirect.sql.gz.txt 02-Feb-2026 00:44      73
md5sums-dewikiversity-20260201-site_stats.sql.g..> 02-Feb-2026 00:43      75
md5sums-dewikiversity-20260201-siteinfo-namespa..> 02-Feb-2026 03:08      85
md5sums-dewikiversity-20260201-siteinfo2-namesp..> 02-Feb-2026 03:09      88
md5sums-dewikiversity-20260201-sites.sql.gz.txt    02-Feb-2026 00:44      70
md5sums-dewikiversity-20260201-stub-articles.xm..> 01-Feb-2026 22:45      78
md5sums-dewikiversity-20260201-stub-meta-curren..> 01-Feb-2026 22:45      82
md5sums-dewikiversity-20260201-stub-meta-histor..> 01-Feb-2026 22:45      82
md5sums-dewikiversity-20260201-templatelinks.sq..> 02-Feb-2026 00:43      78
md5sums-dewikiversity-20260201-user_former_grou..> 02-Feb-2026 00:44      83
md5sums-dewikiversity-20260201-user_groups.sql...> 02-Feb-2026 00:44      76
md5sums-dewikiversity-20260201-wbc_entity_usage..> 02-Feb-2026 00:44      81
report.json                                        02-Feb-2026 03:47    6583
sha1sums-dewikiversity-20260201-all-titles-in-n..> 02-Feb-2026 03:09      86
sha1sums-dewikiversity-20260201-all-titles.gz.txt  02-Feb-2026 03:09      79
sha1sums-dewikiversity-20260201-babel.sql.gz.txt   02-Feb-2026 00:44      78
sha1sums-dewikiversity-20260201-category.sql.gz..> 02-Feb-2026 00:44      81
sha1sums-dewikiversity-20260201-categorylinks.s..> 02-Feb-2026 00:43      86
sha1sums-dewikiversity-20260201-change_tag.sql...> 02-Feb-2026 00:44      83
sha1sums-dewikiversity-20260201-change_tag_def...> 02-Feb-2026 00:44      87
sha1sums-dewikiversity-20260201-externallinks.s..> 02-Feb-2026 00:44      86
sha1sums-dewikiversity-20260201-geo_tags.sql.gz..> 02-Feb-2026 00:44      81
sha1sums-dewikiversity-20260201-image.sql.gz.txt   02-Feb-2026 00:43      78
sha1sums-dewikiversity-20260201-imagelinks.sql...> 02-Feb-2026 00:43      83
sha1sums-dewikiversity-20260201-iwlinks.sql.gz.txt 02-Feb-2026 00:44      80
sha1sums-dewikiversity-20260201-langlinks.sql.g..> 02-Feb-2026 00:44      82
sha1sums-dewikiversity-20260201-linktarget.sql...> 02-Feb-2026 00:43      83
sha1sums-dewikiversity-20260201-page.sql.gz.txt    02-Feb-2026 00:44      77
sha1sums-dewikiversity-20260201-page_props.sql...> 02-Feb-2026 00:44      83
sha1sums-dewikiversity-20260201-page_restrictio..> 02-Feb-2026 00:44      90
sha1sums-dewikiversity-20260201-pagelinks.sql.g..> 02-Feb-2026 00:43      82
sha1sums-dewikiversity-20260201-pages-articles-..> 02-Feb-2026 00:47     106
sha1sums-dewikiversity-20260201-pages-articles-..> 02-Feb-2026 00:47     100
sha1sums-dewikiversity-20260201-pages-articles...> 02-Feb-2026 00:46      88
sha1sums-dewikiversity-20260201-pages-logging.x..> 02-Feb-2026 03:09      86
sha1sums-dewikiversity-20260201-pages-meta-curr..> 02-Feb-2026 00:49      92
sha1sums-dewikiversity-20260201-pages-meta-hist..> 02-Feb-2026 03:47      91
sha1sums-dewikiversity-20260201-pages-meta-hist..> 02-Feb-2026 03:42      92
sha1sums-dewikiversity-20260201-protected_title..> 02-Feb-2026 00:44      89
sha1sums-dewikiversity-20260201-redirect.sql.gz..> 02-Feb-2026 00:44      81
sha1sums-dewikiversity-20260201-site_stats.sql...> 02-Feb-2026 00:43      83
sha1sums-dewikiversity-20260201-siteinfo-namesp..> 02-Feb-2026 03:08      93
sha1sums-dewikiversity-20260201-siteinfo2-names..> 02-Feb-2026 03:09      96
sha1sums-dewikiversity-20260201-sites.sql.gz.txt   02-Feb-2026 00:44      78
sha1sums-dewikiversity-20260201-stub-articles.x..> 01-Feb-2026 22:45      86
sha1sums-dewikiversity-20260201-stub-meta-curre..> 01-Feb-2026 22:45      90
sha1sums-dewikiversity-20260201-stub-meta-histo..> 01-Feb-2026 22:45      90
sha1sums-dewikiversity-20260201-templatelinks.s..> 02-Feb-2026 00:43      86
sha1sums-dewikiversity-20260201-user_former_gro..> 02-Feb-2026 00:44      91
sha1sums-dewikiversity-20260201-user_groups.sql..> 02-Feb-2026 00:44      84
sha1sums-dewikiversity-20260201-wbc_entity_usag..> 02-Feb-2026 00:44      89
status.html                                        02-Feb-2026 03:47     121
tableinfo.json                                     01-Feb-2026 08:48    1530